Regional Weather Roundup
Issued by NWS

Home | Current Version | Previous Version | Text Only | Print | Product List | Glossary Off
Versions: 1 2 3 4 5 6 7 8 9 10 11 12 13 14 15 16 17 18 19 20 21 22 23 24 25 26 27 28 29 30 31 32 33 34 35 36 37 38 39 40 41 42 43 44 45 46 47 48 49 50

000
ASUS45 KBOU 041907
RWRCO

WEATHER ROUNDUP FOR COLORADO
NATIONAL WEATHER SERVICE DENVER/BOULDER CO
1200 PM MST WED MAR 04 2015

NOTE: "FAIR" INDICATES FEW OR NO CLOUDS BELOW 12000 FEET WITH NO
SIGNIFICANT WEATHER AND/OR OBSTRUCTIONS TO VISIBILITY.

COZ001>005-013-030-031-042000-
...NORTHWEST COLORADO...

CITY           SKY/WX    TMP DP  RH WIND       PRES   REMARKS
CRAIG          CLOUDY    19  12  74 CALM      30.10S
HAYDEN         MOSUNNY   18   9  68 W8        30.07R WCI   7
MEEKER         LGT SNOW  25  15  66 CALM      30.07R
MOUNT WERNER   NOT AVBL
STEAMBOAT SPGS NOT AVBL
WALDEN         NOT AVBL
$$

COZ006>008-011-042000-
...WEST CENTRAL VALLEYS...

CITY           SKY/WX    TMP DP  RH WIND       PRES   REMARKS
GRAND JUNCTION SUNNY     36  17  46 W7        30.10S
MONTROSE       SUNNY     31  18  58 SE9       30.08S WCI  23
EAGLE          NOT AVBL
RIFLE          CLOUDY    32  11  41 N8        30.07S WCI  25
DELTA          MOSUNNY   39  20  45 SW8G17    30.07F
NUCLA          SUNNY     32  19  59 CALM      30.09F
$$

COZ017>023-064>068-042000-
...SOUTHWEST COLORADO...

CITY           SKY/WX    TMP DP  RH WIND       PRES   REMARKS
DURANGO        SUNNY     34  13  41 W16       29.95S WCI  24
CORTEZ         SUNNY     36  19  50 NW14      30.03S
PAGOSA SPRINGS CLOUDY    32  20  60 SW6       29.93F WCI  26
TELLURIDE      LGT SNOW  22  14  72 W14       29.97S WCI   9
WOLF CREEK PAS NOT AVBL
$$

COZ009-010-012-014-032>034-037-058>063-042000-
...CENTRAL COLORADO...

CITY           SKY/WX    TMP DP  RH WIND       PRES   REMARKS
ASPEN          MOSUNNY   23   5  46 NW10      29.97S WCI  12
BUENA VISTA    PTSUNNY   24  13  64 SE10      29.91F WCI  13
COPPER MTN     NOT AVBL
BERTHOUD PASS  NOT AVBL
COTTONWOOD PAS NOT AVBL
GUNNISON       PTSUNNY   25  10  54 NW3       30.00R
KREMMLING      NOT AVBL
LEADVILLE      LGT SNOW  11   1  64 NW12G21   29.87R WCI  -3
SALIDA         CLOUDY    20  12  70 SE14G23   30.02F WCI   6
SUNLIGHT       NOT AVBL
WILKERSON PASS NOT AVBL
$$

COZ069>075-042000-
...SAN LUIS VALLEY/SANGRE DE CRISTO MOUNTAINS...

CITY           SKY/WX    TMP DP  RH WIND       PRES   REMARKS
ALAMOSA        NOT AVBL
LA VETA PASS   NOT AVBL
SAGUACHE       NOT AVBL
$$

COZ035-036-038>040-042000-
...NORTHERN COLORADO FRONT RANGE...

CITY           SKY/WX    TMP DP  RH WIND       PRES   REMARKS
DENVER INTL AP MOSUNNY   14   6  70 SE9       30.12F WCI   2
DMNS CITY PARK   N/A     18   7  63 E7        30.12S WCI   8
AURORA         MOSUNNY   14   6  72 SE10      30.12R WCI   1
FRONT RANGE AP NOT AVBL
ERIE MUNI ARPT NOT AVBL
BOULDER MUN AP NOT AVBL
CENTENNIAL     PTSUNNY   15   5  64 VRB6      30.08F WCI   6
BROOMFIELD     NOT AVBL
FORT COLLINS   MOSUNNY   16   7  67 S7        30.18R WCI   6
LONGMONT       NOT AVBL
$$

COZ041-046-047-076>085-087-088-042000-
...PIKES PEAK/PALMER DIVIDE AND SOUTHERN FOOTHILLS...

CITY           SKY/WX    TMP DP  RH WIND       PRES   REMARKS
COLO. SPRINGS  FLURRIES  13   7  77 S13       30.09S WCI  -2
A. F. ACADEMY  FLURRIES  14   6  70 S15       30.04R WCI  -2
ELLICOTT       NOT AVBL
FALCON         NOT AVBL
FORT CARSON    LGT SNOW  14   8  77 SE13      30.09F FOG     WCI   0
LIMON          CLOUDY    14   2  58 E5        30.15R WCI   6
MONUMENT HILL  NOT AVBL
TRINIDAD       LGT SNOW  17  13  84 NE16      30.12S VSB 1   WCI   2
$$

COZ042>045-048>051-090-091-042000-
...NORTHEAST COLORADO...

CITY           SKY/WX    TMP DP  RH WIND       PRES   REMARKS
GREELEY ARPT   SUNNY     21   7  53 CALM      30.17S
AKRON          SUNNY     20   4  50 NW9       30.16F WCI   9
BURLINGTON     SUNNY     22   5  48 N10       30.19F WCI  11
WRAY           NOT AVBL
STERLING       NOT AVBL
HOLYOKE        NOT AVBL
FORT MORGAN    SUNNY     23   8  53 W3        30.19S
$$

COZ086-089-092>099-042000-
...SOUTHEAST COLORADO...

CITY           SKY/WX    TMP DP  RH WIND       PRES   REMARKS
PUEBLO         CLOUDY    19  13  77 E7        30.18F WCI  10
LA JUNTA       LGT SNOW  19  14  81 NE13      30.22S WCI   6
LAMAR          CLOUDY    23  12  62 NE15      30.24S WCI  10
SPRINGFIELD      N/A     19  14  81 NE13      30.19S WCI   6
$$


USA.gov is the U.S. government's official web portal to all federal, state and local government web resources and services.